Time,TemperatureF,DewpointF,PressureIn,WindDirection,WindDirectionDegrees,WindSpeedMPH,WindSpeedGustMPH,Humidity,HourlyPrecipIn,Conditions,Clouds,dailyrainin,SoftwareType,DateUTC
2013-05-23 00:00:00,51.1,42.4,29.93,North,10,0.0,0.0,72,0.00,,,0.00,WeatherCatV1.14B232,2013-05-23 07:00:00,
2013-05-23 00:05:00,51.4,42.7,29.93,NNE,13,0.0,0.0,72,0.00,,,0.00,WeatherCatV1.14B232,2013-05-23 07:05:00,
2013-05-23 00:10:00,51.4,42.7,29.93,NNE,13,0.0,0.0,72,0.00,,,0.00,WeatherCatV1.14B232,2013-05-23 07:10:00,
2013-05-23 00:15:00,51.5,42.8,29.93,NNE,19,0.0,0.0,72,0.00,,,0.00,WeatherCatV1.14B232,2013-05-23 07:15:00,
2013-05-23 00:20:00,51.4,42.3,29.93,NNE,19,0.0,0.0,71,0.00,,,0.00,WeatherCatV1.14B232,2013-05-23 07:20:00,
2013-05-23 00:25:00,51.2,42.1,29.93,NNE,19,0.0,0.0,71,0.00,,,0.00,WeatherCatV1.14B232,2013-05-23 07:25:00,
2013-05-23 00:30:00,51.2,42.1,29.93,NNE,18,0.0,0.0,71,0.00,,,0.00,WeatherCatV1.14B232,2013-05-23 07:30:00,
2013-05-23 00:35:00,51.1,41.7,29.93,NNE,27,0.0,0.0,70,0.00,,,0.00,WeatherCatV1.14B232,2013-05-23 07:35:00,
2013-05-23 00:40:00,50.9,41.5,29.93,NE,34,0.0,0.0,70,0.00,,,0.00,WeatherCatV1.14B232,2013-05-23 07:40:00,
2013-05-23 00:45:00,50.7,41.3,29.93,NE,44,0.0,0.0,70,0.00,,,0.00,WeatherCatV1.14B232,2013-05-23 07:45:00,
2013-05-23 00:50:00,50.6,41.5,29.93,NE,44,0.0,0.0,71,0.00,,,0.00,WeatherCatV1.14B232,2013-05-23 07:50:00,
2013-05-23 00:55:00,50.6,41.5,29.93,NE,44,0.0,0.0,71,0.00,,,0.00,WeatherCatV1.14B232,2013-05-23 07:55:00,
2013-05-23 01:00:00,50.4,41.4,29.93,WSW,243,1.0,2.0,71,0.00,,,0.00,WeatherCatV1.14B232,2013-05-23 08:00:00,
2013-05-23 01:05:00,50.0,41.0,29.93,WSW,244,1.0,1.0,71,0.00,,,0.00,WeatherCatV1.14B232,2013-05-23 08:05:00,
2013-05-23 01:10:00,49.7,41.0,29.93,WSW,241,0.0,0.0,72,0.00,,,0.00,WeatherCatV1.14B232,2013-05-23 08:10:00,
2013-05-23 01:15:00,49.3,41.0,29.93,SW,234,0.0,0.0,73,0.00,,,0.00,WeatherCatV1.14B232,2013-05-23 08:15:00,
2013-05-23 01:20:00,49.1,40.8,29.93,SW,233,0.0,0.0,73,0.00,,,0.00,WeatherCatV1.14B232,2013-05-23 08:20:00,
2013-05-23 01:25:00,49.0,40.7,29.93,SW,233,0.0,0.0,73,0.00,,,0.00,WeatherCatV1.14B232,2013-05-23 08:25:00,
2013-05-23 01:30:00,49.1,40.8,29.93,SW,233,0.0,0.0,73,0.00,,,0.00,WeatherCatV1.14B232,2013-05-23 08:30:00,
2013-05-23 01:35:00,49.2,40.9,29.93,WSW,246,0.0,0.0,73,0.00,,,0.00,WeatherCatV1.14B232,2013-05-23 08:35:00,
2013-05-23 01:40:00,49.4,40.8,29.93,North,6,0.0,0.0,72,0.00,,,0.00,WeatherCatV1.14B232,2013-05-23 08:40:00,
2013-05-23 01:45:00,49.4,40.8,29.93,NNE,20,0.0,0.0,72,0.00,,,0.00,WeatherCatV1.14B232,2013-05-23 08:45:00,
2013-05-23 01:50:00,49.4,40.8,29.93,NE,36,0.0,0.0,72,0.00,,,0.00,WeatherCatV1.14B232,2013-05-23 08:50:00,
2013-05-23 01:55:00,49.4,40.8,29.93,NE,39,0.0,0.0,72,0.00,,,0.00,WeatherCatV1.14B232,2013-05-23 08:55:00,
2013-05-23 02:00:00,49.4,40.8,29.93,East,80,0.0,0.0,72,0.00,,,0.00,WeatherCatV1.14B232,2013-05-23 09:00:00,
2013-05-23 02:05:00,49.3,41.0,29.92,ENE,66,0.0,0.0,73,0.00,,,0.00,WeatherCatV1.14B232,2013-05-23 09:05:00,
2013-05-23 02:10:00,49.0,41.1,29.92,NE,48,0.0,2.0,74,0.00,,,0.00,WeatherCatV1.14B232,2013-05-23 09:10:00,
2013-05-23 02:15:00,48.9,41.0,29.92,NE,47,0.0,0.0,74,0.00,,,0.00,WeatherCatV1.14B232,2013-05-23 09:15:00,
2013-05-23 02:20:00,48.7,41.1,29.92,NE,46,0.0,0.0,75,0.00,,,0.00,WeatherCatV1.14B232,2013-05-23 09:20:00,
2013-05-23 02:25:00,48.6,41.0,29.92,NE,46,0.0,0.0,75,0.00,,,0.00,WeatherCatV1.14B232,2013-05-23 09:25:00,
2013-05-23 02:30:00,48.5,40.9,29.92,NE,46,0.0,0.0,75,0.00,,,0.00,WeatherCatV1.14B232,2013-05-23 09:30:00,
2013-05-23 02:35:00,48.3,40.7,29.92,NE,46,0.0,0.0,75,0.00,,,0.00,WeatherCatV1.14B232,2013-05-23 09:35:00,
2013-05-23 02:40:00,48.2,40.7,29.92,NE,46,0.0,0.0,75,0.00,,,0.00,WeatherCatV1.14B232,2013-05-23 09:40:00,
2013-05-23 02:45:00,48.0,40.5,29.92,SE,132,0.0,0.0,75,0.00,,,0.00,WeatherCatV1.14B232,2013-05-23 09:45:00,
2013-05-23 02:50:00,47.8,40.3,29.92,SSE,166,0.0,0.0,75,0.00,,,0.00,WeatherCatV1.14B232,2013-05-23 09:50:00,
2013-05-23 02:55:00,47.8,40.3,29.92,SE,133,0.0,0.0,75,0.00,,,0.00,WeatherCatV1.14B232,2013-05-23 09:55:00,
2013-05-23 03:00:00,47.9,40.4,29.92,East,82,0.0,0.0,75,0.00,,,0.00,WeatherCatV1.14B232,2013-05-23 10:00:00,
2013-05-23 03:05:00,48.0,40.5,29.92,ENE,63,0.0,1.0,75,0.00,,,0.00,WeatherCatV1.14B232,2013-05-23 10:05:00,
2013-05-23 03:10:00,48.1,40.6,29.92,ENE,59,0.0,0.0,75,0.00,,,0.00,WeatherCatV1.14B232,2013-05-23 10:10:00,
2013-05-23 03:15:00,48.1,40.2,29.92,NE,56,0.0,0.0,74,0.00,,,0.00,WeatherCatV1.14B232,2013-05-23 10:15:00,
2013-05-23 03:20:00,48.3,40.4,29.92,NE,48,0.0,0.0,74,0.00,,,0.00,WeatherCatV1.14B232,2013-05-23 10:20:00,
2013-05-23 03:25:00,48.2,40.3,29.92,NE,48,0.0,0.0,74,0.00,,,0.00,WeatherCatV1.14B232,2013-05-23 10:25:00,
2013-05-23 03:30:00,48.3,40.4,29.92,NE,47,0.0,0.0,74,0.00,,,0.00,WeatherCatV1.14B232,2013-05-23 10:30:00,
2013-05-23 03:35:00,48.2,40.3,29.92,NE,47,0.0,0.0,74,0.00,,,0.00,WeatherCatV1.14B232,2013-05-23 10:35:00,
2013-05-23 03:40:00,48.2,40.3,29.92,NE,47,0.0,0.0,74,0.00,,,0.00,WeatherCatV1.14B232,2013-05-23 10:40:00,
2013-05-23 03:45:00,48.2,40.3,29.92,NE,47,0.0,0.0,74,0.00,,,0.00,WeatherCatV1.14B232,2013-05-23 10:45:00,
2013-05-23 03:50:00,47.9,40.4,29.92,NE,47,0.0,0.0,75,0.00,,,0.00,WeatherCatV1.14B232,2013-05-23 10:50:00,
2013-05-23 03:55:00,47.8,40.3,29.92,NE,47,0.0,0.0,75,0.00,,,0.00,WeatherCatV1.14B232,2013-05-23 10:55:00,
2013-05-23 04:00:00,47.5,40.3,29.92,NE,47,0.0,0.0,76,0.00,,,0.00,WeatherCatV1.14B232,2013-05-23 11:00:00,
2013-05-23 04:05:00,47.5,40.0,29.92,NE,47,0.0,0.0,75,0.00,,,0.00,WeatherCatV1.14B232,2013-05-23 11:05:00,
2013-05-23 04:10:00,47.6,40.1,29.92,NE,47,0.0,0.0,75,0.00,,,0.00,WeatherCatV1.14B232,2013-05-23 11:10:00,
2013-05-23 04:15:00,47.4,39.9,29.92,NE,46,0.0,0.0,75,0.00,,,0.00,WeatherCatV1.14B232,2013-05-23 11:15:00,
2013-05-23 04:20:00,47.4,39.9,29.92,NE,46,0.0,0.0,75,0.00,,,0.00,WeatherCatV1.14B232,2013-05-23 11:20:00,
2013-05-23 04:25:00,47.2,39.7,29.92,NNE,18,0.0,0.0,75,0.00,,,0.00,WeatherCatV1.14B232,2013-05-23 11:25:00,
2013-05-23 04:30:00,46.9,39.7,29.92,NNE,18,0.0,0.0,76,0.00,,,0.00,WeatherCatV1.14B232,2013-05-23 11:30:00,
2013-05-23 04:35:00,46.9,39.7,29.92,NE,42,0.0,0.0,76,0.00,,,0.00,WeatherCatV1.14B232,2013-05-23 11:35:00,
2013-05-23 04:40:00,47.0,39.5,29.92,NE,45,0.0,0.0,75,0.00,,,0.00,WeatherCatV1.14B232,2013-05-23 11:40:00,
2013-05-23 04:45:00,47.2,39.3,29.92,West,278,0.0,0.0,74,0.00,,,0.00,WeatherCatV1.14B232,2013-05-23 11:45:00,
2013-05-23 04:50:00,47.2,39.3,29.92,NE,36,0.0,1.0,74,0.00,,,0.00,WeatherCatV1.14B232,2013-05-23 11:50:00,
2013-05-23 04:55:00,47.1,39.2,29.92,NE,43,0.0,1.0,74,0.00,,,0.00,WeatherCatV1.14B232,2013-05-23 11:55:00,
2013-05-23 05:00:00,47.0,39.5,29.93,NE,45,0.0,0.0,75,0.00,,,0.00,WeatherCatV1.14B232,2013-05-23 12:00:00,
2013-05-23 05:14:00,47.0,39.5,29.92,NE,43,0.0,0.0,75,0.00,,,0.00,WeatherCatV1.14B232,2013-05-23 12:14:00,
2013-05-23 05:19:00,47.0,39.1,29.92,SW,225,0.0,2.0,74,0.00,,,0.00,WeatherCatV1.14B232,2013-05-23 12:19:00,
2013-05-23 05:24:00,47.0,39.1,29.93,NE,48,0.0,3.0,74,0.00,,,0.00,WeatherCatV1.14B232,2013-05-23 12:24:00,
2013-05-23 05:29:00,47.0,39.1,29.92,ENE,57,0.0,0.0,74,0.00,,,0.00,WeatherCatV1.14B232,2013-05-23 12:29:00,
2013-05-23 05:34:00,47.0,39.1,29.92,SW,214,0.0,2.0,74,0.00,,,0.00,WeatherCatV1.14B232,2013-05-23 12:34:00,
2013-05-23 05:39:00,47.0,39.1,29.92,SSW,212,0.0,0.0,74,0.00,,,0.00,WeatherCatV1.14B232,2013-05-23 12:39:00,
2013-05-23 05:44:00,47.1,39.2,29.93,NNE,29,0.0,0.0,74,0.00,,,0.00,WeatherCatV1.14B232,2013-05-23 12:44:00,
2013-05-23 05:49:00,47.0,39.1,29.93,SW,228,1.0,1.0,74,0.00,,,0.00,WeatherCatV1.14B232,2013-05-23 12:49:00,
2013-05-23 05:54:00,47.0,39.1,29.93,WSW,240,0.0,0.0,74,0.00,,,0.00,WeatherCatV1.14B232,2013-05-23 12:54:00,
2013-05-23 05:59:00,46.8,39.0,29.93,West,259,0.0,0.0,74,0.00,,,0.00,WeatherCatV1.14B232,2013-05-23 12:59:00,
2013-05-23 06:04:00,46.8,39.0,29.93,NE,40,0.0,0.0,74,0.00,,,0.00,WeatherCatV1.14B232,2013-05-23 13:04:00,
2013-05-23 06:09:00,47.0,39.1,29.93,NE,36,0.0,0.0,74,0.00,,,0.00,WeatherCatV1.14B232,2013-05-23 13:09:00,
2013-05-23 06:14:00,47.1,39.2,29.93,North,4,0.0,0.0,74,0.00,,,0.00,WeatherCatV1.14B232,2013-05-23 13:14:00,
2013-05-23 06:19:00,47.0,39.5,29.93,North,6,0.0,0.0,75,0.00,,,0.00,WeatherCatV1.14B232,2013-05-23 13:19:00,
2013-05-23 06:24:00,46.9,39.4,29.94,NE,37,0.0,1.0,75,0.00,,,0.00,WeatherCatV1.14B232,2013-05-23 13:24:00,
2013-05-23 06:29:00,47.0,39.5,29.94,NNW,348,0.0,0.0,75,0.00,,,0.00,WeatherCatV1.14B232,2013-05-23 13:29:00,
2013-05-23 06:34:00,47.0,39.5,29.94,South,176,0.0,0.0,75,0.00,,,0.00,WeatherCatV1.14B232,2013-05-23 13:34:00,
2013-05-23 06:39:00,47.2,39.3,29.94,SW,225,1.0,3.0,74,0.00,,,0.00,WeatherCatV1.14B232,2013-05-23 13:39:00,
2013-05-23 06:44:00,47.2,39.3,29.94,South,176,0.0,2.0,74,0.00,,,0.00,WeatherCatV1.14B232,2013-05-23 13:44:00,
2013-05-23 06:49:00,47.3,39.8,29.94,ESE,113,0.0,2.0,75,0.00,,,0.00,WeatherCatV1.14B232,2013-05-23 13:49:00,
2013-05-23 06:54:00,47.5,40.0,29.94,SW,236,0.0,0.0,75,0.00,,,0.00,WeatherCatV1.14B232,2013-05-23 13:54:00,
2013-05-23 06:59:00,47.6,40.1,29.94,NW,309,0.0,0.0,75,0.00,,,0.00,WeatherCatV1.14B232,2013-05-23 13:59:00,
2013-05-23 07:04:00,47.8,40.3,29.94,NNE,30,0.0,3.0,75,0.00,,,0.00,WeatherCatV1.14B232,2013-05-23 14:04:00,
2013-05-23 07:09:00,47.9,40.4,29.95,WNW,288,0.0,2.0,75,0.00,,,0.00,WeatherCatV1.14B232,2013-05-23 14:09:00,
2013-05-23 07:14:00,48.0,40.1,29.95,NNE,15,1.0,5.0,74,0.00,,,0.00,WeatherCatV1.14B232,2013-05-23 14:14:00,
2013-05-23 07:19:00,48.3,40.7,29.95,SW,222,1.0,1.0,75,0.00,,,0.00,WeatherCatV1.14B232,2013-05-23 14:19:00,
2013-05-23 07:24:00,48.6,40.3,29.95,ESE,109,0.0,2.0,73,0.00,,,0.00,WeatherCatV1.14B232,2013-05-23 14:24:00,
2013-05-23 07:29:00,48.8,40.5,29.95,SW,231,1.0,3.0,73,0.00,,,0.00,WeatherCatV1.14B232,2013-05-23 14:29:00,
2013-05-23 07:34:00,48.9,40.6,29.95,SW,232,0.0,0.0,73,0.00,,,0.00,WeatherCatV1.14B232,2013-05-23 14:34:00,
2013-05-23 07:39:00,49.0,40.7,29.95,WSW,243,1.0,3.0,73,0.00,,,0.00,WeatherCatV1.14B232,2013-05-23 14:39:00,
2013-05-23 07:44:00,49.1,40.5,29.95,SW,215,0.0,2.0,72,0.00,,,0.00,WeatherCatV1.14B232,2013-05-23 14:44:00,
2013-05-23 07:49:00,49.4,40.8,29.95,WSW,244,0.0,3.0,72,0.00,,,0.00,WeatherCatV1.14B232,2013-05-23 14:49:00,
2013-05-23 07:54:00,49.6,40.9,29.95,NNE,23,0.0,3.0,72,0.00,,,0.00,WeatherCatV1.14B232,2013-05-23 14:54:00,
2013-05-23 07:59:00,49.9,40.9,29.95,SW,225,0.0,1.0,71,0.00,,,0.00,WeatherCatV1.14B232,2013-05-23 14:59:00,
2013-05-23 08:04:00,50.3,41.3,29.95,SW,220,0.0,0.0,71,0.00,,,0.00,WeatherCatV1.14B232,2013-05-23 15:04:00,
2013-05-23 08:09:00,50.7,41.6,29.96,SW,226,0.0,2.0,71,0.00,,,0.00,WeatherCatV1.14B232,2013-05-23 15:09:00,
2013-05-23 08:14:00,50.9,41.5,29.95,SW,236,0.0,3.0,70,0.00,,,0.00,WeatherCatV1.14B232,2013-05-23 15:14:00,
2013-05-23 08:19:00,51.1,41.7,29.96,SW,236,0.0,4.0,70,0.00,,,0.00,WeatherCatV1.14B232,2013-05-23 15:19:00,
2013-05-23 08:24:00,51.4,41.9,29.96,WSW,248,1.0,2.0,70,0.00,,,0.00,WeatherCatV1.14B232,2013-05-23 15:24:00,
2013-05-23 08:29:00,51.6,41.8,29.96,SW,231,2.0,5.0,69,0.00,,,0.00,WeatherCatV1.14B232,2013-05-23 15:29:00,
2013-05-23 08:34:00,51.9,42.4,29.96,WSW,245,0.0,1.0,70,0.00,,,0.00,WeatherCatV1.14B232,2013-05-23 15:34:00,
2013-05-23 08:39:00,52.3,42.8,29.96,SW,231,1.0,1.0,70,0.00,,,0.00,WeatherCatV1.14B232,2013-05-23 15:39:00,
2013-05-23 08:44:00,52.6,42.7,29.96,ESE,107,0.0,1.0,69,0.00,,,0.00,WeatherCatV1.14B232,2013-05-23 15:44:00,
2013-05-23 08:49:00,52.9,42.6,29.96,SW,217,1.0,2.0,68,0.00,,,0.00,WeatherCatV1.14B232,2013-05-23 15:49:00,
2013-05-23 08:54:00,53.1,42.8,29.96,WSW,238,2.0,2.0,68,0.00,,,0.00,WeatherCatV1.14B232,2013-05-23 15:54:00,
2013-05-23 08:59:00,53.5,43.2,29.96,NE,48,1.0,3.0,68,0.00,,,0.00,WeatherCatV1.14B232,2013-05-23 15:59:00,
2013-05-23 09:04:00,54.0,44.1,29.97,SW,224,0.0,0.0,69,0.00,,,0.00,WeatherCatV1.14B232,2013-05-23 16:04:00,
2013-05-23 09:09:00,54.5,43.8,29.97,WSW,250,0.0,2.0,67,0.00,,,0.00,WeatherCatV1.14B232,2013-05-23 16:09:00,
2013-05-23 09:14:00,54.3,44.0,29.96,East,89,1.0,1.0,68,0.00,,,0.00,WeatherCatV1.14B232,2013-05-23 16:14:00,
2013-05-23 09:19:00,55.0,45.0,29.97,ENE,57,1.0,1.0,69,0.00,,,0.00,WeatherCatV1.14B232,2013-05-23 16:19:00,
2013-05-23 09:24:00,55.1,43.1,29.97,ENE,68,0.0,3.0,64,0.00,,,0.00,WeatherCatV1.14B232,2013-05-23 16:24:00,
2013-05-23 09:29:00,54.9,43.8,29.98,SW,228,0.0,0.0,66,0.00,,,0.00,WeatherCatV1.14B232,2013-05-23 16:29:00,
2013-05-23 09:34:00,54.8,43.7,29.98,SW,233,1.0,2.0,66,0.00,,,0.00,WeatherCatV1.14B232,2013-05-23 16:34:00,
2013-05-23 09:39:00,54.5,43.0,29.98,WSW,238,0.0,2.0,65,0.00,,,0.00,WeatherCatV1.14B232,2013-05-23 16:39:00,
2013-05-23 09:44:00,54.6,43.5,29.98,SW,235,0.0,1.0,66,0.00,,,0.00,WeatherCatV1.14B232,2013-05-23 16:44:00,
2013-05-23 09:49:00,54.8,43.7,29.98,South,182,1.0,1.0,66,0.00,,,0.00,WeatherCatV1.14B232,2013-05-23 16:49:00,
2013-05-23 09:54:00,55.1,43.9,29.98,SW,228,0.0,1.0,66,0.00,,,0.00,WeatherCatV1.14B232,2013-05-23 16:54:00,
2013-05-23 09:59:00,55.2,43.6,29.98,SW,231,4.0,4.0,65,0.00,,,0.00,WeatherCatV1.14B232,2013-05-23 16:59:00,
2013-05-23 10:04:00,55.1,43.9,29.98,WSW,253,1.0,4.0,66,0.00,,,0.00,WeatherCatV1.14B232,2013-05-23 17:04:00,
2013-05-23 10:09:00,55.6,44.0,29.98,SW,228,1.0,1.0,65,0.00,,,0.00,WeatherCatV1.14B232,2013-05-23 17:09:00,
2013-05-23 10:15:00,55.5,43.9,29.98,SW,224,2.0,4.0,65,0.00,,,0.00,WeatherCatV1.14B232,2013-05-23 17:15:00,
2013-05-23 10:20:00,55.6,44.4,29.98,WSW,253,3.0,5.0,66,0.00,,,0.00,WeatherCatV1.14B232,2013-05-23 17:20:00,
2013-05-23 10:25:00,55.4,43.8,29.98,WSW,246,3.0,4.0,65,0.00,,,0.00,WeatherCatV1.14B232,2013-05-23 17:25:00,
2013-05-23 10:30:00,55.9,44.7,29.98,WSW,240,2.0,3.0,66,0.00,,,0.00,WeatherCatV1.14B232,2013-05-23 17:30:00,
2013-05-23 10:35:00,56.1,44.5,29.98,WSW,240,3.0,5.0,65,0.00,,,0.00,WeatherCatV1.14B232,2013-05-23 17:35:00,
2013-05-23 10:40:00,56.2,44.6,29.98,SW,235,4.0,4.0,65,0.00,,,0.00,WeatherCatV1.14B232,2013-05-23 17:40:00,
2013-05-23 10:45:00,56.7,44.7,29.99,SW,235,6.0,6.0,64,0.00,,,0.00,WeatherCatV1.14B232,2013-05-23 17:45:00,
2013-05-23 10:50:00,56.9,44.8,29.98,SW,228,7.0,7.0,64,0.00,,,0.00,WeatherCatV1.14B232,2013-05-23 17:50:00,
2013-05-23 10:55:00,57.2,45.1,29.98,West,264,5.0,5.0,64,0.00,,,0.00,WeatherCatV1.14B232,2013-05-23 17:55:00,
2013-05-23 11:00:00,57.4,44.5,29.98,SSW,207,4.0,6.0,62,0.00,,,0.00,WeatherCatV1.14B232,2013-05-23 18:00:00,
2013-05-23 11:05:00,57.2,44.7,29.98,WSW,255,4.0,6.0,63,0.00,,,0.00,WeatherCatV1.14B232,2013-05-23 18:05:00,
2013-05-23 11:10:00,57.5,44.6,29.98,WSW,256,3.0,5.0,62,0.00,,,0.00,WeatherCatV1.14B232,2013-05-23 18:10:00,
2013-05-23 11:15:00,57.8,44.9,29.98,WSW,246,5.0,7.0,62,0.00,,,0.00,WeatherCatV1.14B232,2013-05-23 18:15:00,
2013-05-23 11:20:00,57.9,44.5,29.98,SW,221,4.0,5.0,61,0.00,,,0.00,WeatherCatV1.14B232,2013-05-23 18:20:00,
2013-05-23 11:25:00,58.1,45.1,29.98,West,259,3.0,6.0,62,0.00,,,0.00,WeatherCatV1.14B232,2013-05-23 18:25:00,
2013-05-23 11:30:00,58.5,45.1,29.99,SW,222,3.0,8.0,61,0.00,,,0.00,WeatherCatV1.14B232,2013-05-23 18:30:00,
2013-05-23 11:35:00,58.4,44.1,29.99,SW,231,5.0,7.0,59,0.00,,,0.00,WeatherCatV1.14B232,2013-05-23 18:35:00,
2013-05-23 11:40:00,57.9,44.1,29.99,WSW,248,6.0,7.0,60,0.00,,,0.00,WeatherCatV1.14B232,2013-05-23 18:40:00,
2013-05-23 11:45:00,58.0,44.2,29.99,WSW,247,7.0,8.0,60,0.00,,,0.00,WeatherCatV1.14B232,2013-05-23 18:45:00,
2013-05-23 11:50:00,58.5,45.1,30.00,West,266,6.0,6.0,61,0.00,,,0.00,WeatherCatV1.14B232,2013-05-23 18:50:00,
2013-05-23 11:55:00,59.0,45.1,30.00,SW,226,4.0,6.0,60,0.00,,,0.00,WeatherCatV1.14B232,2013-05-23 18:55:00,
2013-05-23 12:00:00,59.5,45.6,30.00,WSW,248,6.0,7.0,60,0.00,,,0.00,WeatherCatV1.14B232,2013-05-23 19:00:00,
2013-05-23 12:05:00,59.1,44.3,30.00,SW,231,8.0,9.0,58,0.00,,,0.00,WeatherCatV1.14B232,2013-05-23 19:05:00,
2013-05-23 12:10:00,59.5,45.2,30.00,West,262,5.0,8.0,59,0.00,,,0.00,WeatherCatV1.14B232,2013-05-23 19:10:00,
2013-05-23 12:15:00,59.7,45.8,30.00,West,260,5.0,9.0,60,0.00,,,0.00,WeatherCatV1.14B232,2013-05-23 19:15:00,
2013-05-23 12:20:00,60.4,46.0,30.00,West,267,4.0,8.0,59,0.00,,,0.00,WeatherCatV1.14B232,2013-05-23 19:20:00,
2013-05-23 12:25:00,60.6,46.6,30.00,WSW,255,9.0,10.0,60,0.00,,,0.00,WeatherCatV1.14B232,2013-05-23 19:25:00,
2013-05-23 12:30:00,60.6,46.2,30.00,SW,219,7.0,8.0,59,0.00,,,0.00,WeatherCatV1.14B232,2013-05-23 19:30:00,
2013-05-23 12:35:00,60.6,46.2,30.00,SW,216,5.0,7.0,59,0.00,,,0.00,WeatherCatV1.14B232,2013-05-23 19:35:00,
2013-05-23 12:40:00,61.1,46.7,30.00,SW,231,5.0,10.0,59,0.00,,,0.00,WeatherCatV1.14B232,2013-05-23 19:40:00,
2013-05-23 12:45:00,62.0,46.6,30.00,WSW,238,5.0,9.0,57,0.00,,,0.00,WeatherCatV1.14B232,2013-05-23 19:45:00,
2013-05-23 12:50:00,62.3,46.9,29.99,West,262,6.0,7.0,57,0.00,,,0.00,WeatherCatV1.14B232,2013-05-23 19:50:00,
2013-05-23 12:55:00,62.3,45.9,29.99,SW,236,4.0,11.0,55,0.00,,,0.00,WeatherCatV1.14B232,2013-05-23 19:55:00,
2013-05-23 13:00:00,62.2,45.8,29.99,WSW,245,5.0,8.0,55,0.00,,,0.00,WeatherCatV1.14B232,2013-05-23 20:00:00,
2013-05-23 13:05:00,62.3,45.9,29.99,WSW,253,3.0,7.0,55,0.00,,,0.00,WeatherCatV1.14B232,2013-05-23 20:05:00,
2013-05-23 13:10:00,62.9,47.0,29.99,West,269,5.0,7.0,56,0.00,,,0.00,WeatherCatV1.14B232,2013-05-23 20:10:00,
2013-05-23 13:15:00,63.0,46.6,29.99,SW,228,5.0,8.0,55,0.00,,,0.00,WeatherCatV1.14B232,2013-05-23 20:15:00,
2013-05-23 13:20:00,63.5,46.6,30.00,WSW,254,3.0,8.0,54,0.00,,,0.00,WeatherCatV1.14B232,2013-05-23 20:20:00,
2013-05-23 13:25:00,63.6,46.2,30.00,West,273,4.0,7.0,53,0.00,,,0.00,WeatherCatV1.14B232,2013-05-23 20:25:00,
2013-05-23 13:30:00,63.3,45.9,30.00,West,259,4.0,10.0,53,0.00,,,0.00,WeatherCatV1.14B232,2013-05-23 20:30:00,
2013-05-23 13:35:00,63.7,46.2,30.00,WSW,243,5.0,11.0,53,0.00,,,0.00,WeatherCatV1.14B232,2013-05-23 20:35:00,
2013-05-23 13:40:00,63.3,45.9,30.00,SSW,195,6.0,12.0,53,0.00,,,0.00,WeatherCatV1.14B232,2013-05-23 20:40:00,
2013-05-23 13:45:00,63.9,46.4,30.00,West,266,8.0,9.0,53,0.00,,,0.00,WeatherCatV1.14B232,2013-05-23 20:45:00,
2013-05-23 13:50:00,64.1,46.6,30.00,WSW,246,7.0,11.0,53,0.00,,,0.00,WeatherCatV1.14B232,2013-05-23 20:50:00,
2013-05-23 13:55:00,63.6,45.6,30.00,WSW,249,6.0,8.0,52,0.00,,,0.00,WeatherCatV1.14B232,2013-05-23 20:55:00,
2013-05-23 14:00:00,63.7,45.7,30.00,SW,229,9.0,13.0,52,0.00,,,0.00,WeatherCatV1.14B232,2013-05-23 21:00:00,
2013-05-23 14:05:00,62.5,45.1,30.00,West,264,6.0,8.0,53,0.00,,,0.00,WeatherCatV1.14B232,2013-05-23 21:05:00,
2013-05-23 14:10:00,62.6,45.2,30.00,WSW,252,8.0,10.0,53,0.00,,,0.00,WeatherCatV1.14B232,2013-05-23 21:10:00,
2013-05-23 14:15:00,62.8,45.9,30.00,West,262,7.0,13.0,54,0.00,,,0.00,WeatherCatV1.14B232,2013-05-23 21:15:00,
2013-05-23 14:20:00,62.9,46.0,30.00,West,270,7.0,10.0,54,0.00,,,0.00,WeatherCatV1.14B232,2013-05-23 21:20:00,
2013-05-23 14:25:00,63.8,46.3,30.00,SW,225,8.0,10.0,53,0.00,,,0.00,WeatherCatV1.14B232,2013-05-23 21:25:00,
2013-05-23 14:30:00,63.8,46.3,29.99,WSW,253,5.0,10.0,53,0.00,,,0.00,WeatherCatV1.14B232,2013-05-23 21:30:00,
2013-05-23 14:35:00,63.8,46.8,29.99,West,260,7.0,13.0,54,0.00,,,0.00,WeatherCatV1.14B232,2013-05-23 21:35:00,
2013-05-23 14:40:00,63.8,45.8,30.00,West,274,8.0,14.0,52,0.00,,,0.00,WeatherCatV1.14B232,2013-05-23 21:40:00,
2013-05-23 14:45:00,63.7,45.7,30.00,West,278,8.0,12.0,52,0.00,,,0.00,WeatherCatV1.14B232,2013-05-23 21:45:00,
2013-05-23 14:50:00,63.5,45.6,30.00,WSW,249,10.0,13.0,52,0.00,,,0.00,WeatherCatV1.14B232,2013-05-23 21:50:00,
2013-05-23 14:55:00,63.6,46.2,30.00,West,267,8.0,12.0,53,0.00,,,0.00,WeatherCatV1.14B232,2013-05-23 21:55:00,
2013-05-23 15:00:00,63.8,46.3,30.00,West,260,6.0,12.0,53,0.00,,,0.00,WeatherCatV1.14B232,2013-05-23 22:00:00,
2013-05-23 15:05:00,64.0,45.5,29.99,SW,225,10.0,14.0,51,0.00,,,0.00,WeatherCatV1.14B232,2013-05-23 22:05:00,
2013-05-23 15:10:00,63.4,45.5,29.99,West,262,11.0,15.0,52,0.00,,,0.00,WeatherCatV1.14B232,2013-05-23 22:10:00,
2013-05-23 15:15:00,63.8,46.3,29.99,SW,219,7.0,13.0,53,0.00,,,0.00,WeatherCatV1.14B232,2013-05-23 22:15:00,
2013-05-23 15:20:00,64.2,46.7,29.99,WSW,256,12.0,14.0,53,0.00,,,0.00,WeatherCatV1.14B232,2013-05-23 22:20:00,
2013-05-23 15:25:00,64.3,46.8,29.99,WSW,240,8.0,16.0,53,0.00,,,0.00,WeatherCatV1.14B232,2013-05-23 22:25:00,
2013-05-23 15:30:00,64.0,47.0,29.99,WSW,252,14.0,14.0,54,0.00,,,0.00,WeatherCatV1.14B232,2013-05-23 22:30:00,
2013-05-23 15:35:00,63.7,46.7,29.99,West,262,13.0,17.0,54,0.00,,,0.00,WeatherCatV1.14B232,2013-05-23 22:35:00,
2013-05-23 15:40:00,64.3,46.3,29.99,WSW,243,12.0,13.0,52,0.00,,,0.00,WeatherCatV1.14B232,2013-05-23 22:40:00,
2013-05-23 15:45:00,63.8,45.3,29.99,WSW,242,13.0,15.0,51,0.00,,,0.00,WeatherCatV1.14B232,2013-05-23 22:45:00,
2013-05-23 15:50:00,63.4,44.4,29.99,WSW,249,14.0,18.0,50,0.00,,,0.00,WeatherCatV1.14B232,2013-05-23 22:50:00,
2013-05-23 15:55:00,63.0,45.1,29.99,West,274,10.0,15.0,52,0.00,,,0.00,WeatherCatV1.14B232,2013-05-23 22:55:00,
2013-05-23 16:02:00,63.2,45.3,29.98,WSW,242,9.0,13.0,52,0.00,,,0.00,WeatherCatV1.14B232,2013-05-23 23:02:00,
2013-05-23 16:07:00,63.7,45.2,29.99,West,266,6.0,14.0,51,0.00,,,0.00,WeatherCatV1.14B232,2013-05-23 23:07:00,
2013-05-23 16:12:00,63.8,45.8,29.99,West,274,6.0,14.0,52,0.00,,,0.00,WeatherCatV1.14B232,2013-05-23 23:12:00,
2013-05-23 16:17:00,63.9,45.4,29.99,West,273,5.0,13.0,51,0.00,,,0.00,WeatherCatV1.14B232,2013-05-23 23:17:00,
2013-05-23 16:22:00,64.8,45.7,29.98,South,184,7.0,14.0,50,0.00,,,0.00,WeatherCatV1.14B232,2013-05-23 23:22:00,
2013-05-23 16:27:00,64.9,45.8,29.99,West,259,9.0,16.0,50,0.00,,,0.00,WeatherCatV1.14B232,2013-05-23 23:27:00,
2013-05-23 16:32:00,65.1,45.5,29.98,WSW,254,10.0,11.0,49,0.00,,,0.00,WeatherCatV1.14B232,2013-05-23 23:32:00,
2013-05-23 16:37:00,65.5,45.3,29.99,West,260,6.0,9.0,48,0.00,,,0.00,WeatherCatV1.14B232,2013-05-23 23:37:00,
2013-05-23 16:43:00,66.0,45.7,29.99,SW,232,9.0,9.0,48,0.00,,,0.00,WeatherCatV1.14B232,2013-05-23 23:43:00,
2013-05-23 16:48:00,66.0,45.2,29.99,WSW,255,4.0,7.0,47,0.00,,,0.00,WeatherCatV1.14B232,2013-05-23 23:48:00,
2013-05-23 16:53:00,66.2,45.4,29.99,West,266,6.0,13.0,47,0.00,,,0.00,WeatherCatV1.14B232,2013-05-23 23:53:00,
2013-05-23 16:58:00,65.6,44.3,29.99,WSW,252,8.0,14.0,46,0.00,,,0.00,WeatherCatV1.14B232,2013-05-23 23:58:00,
2013-05-23 17:03:00,65.7,44.9,29.99,WSW,253,8.0,10.0,47,0.00,,,0.00,WeatherCatV1.14B232,2013-05-24 00:03:00,
2013-05-23 17:08:00,65.1,44.4,29.99,SW,222,6.0,12.0,47,0.00,,,0.00,WeatherCatV1.14B232,2013-05-24 00:08:00,
2013-05-23 17:13:00,64.9,44.7,29.99,West,269,9.0,13.0,48,0.00,,,0.00,WeatherCatV1.14B232,2013-05-24 00:13:00,
2013-05-23 17:18:00,64.5,43.8,29.99,WSW,255,5.0,11.0,47,0.00,,,0.00,WeatherCatV1.14B232,2013-05-24 00:18:00,
2013-05-23 17:23:00,64.5,44.4,29.99,SW,231,5.0,7.0,48,0.00,,,0.00,WeatherCatV1.14B232,2013-05-24 00:23:00,
2013-05-23 17:28:00,64.8,44.1,29.99,SW,229,6.0,10.0,47,0.00,,,0.00,WeatherCatV1.14B232,2013-05-24 00:28:00,
2013-05-23 17:33:00,64.3,43.6,29.99,WSW,243,6.0,8.0,47,0.00,,,0.00,WeatherCatV1.14B232,2013-05-24 00:33:00,
2013-05-23 17:38:00,64.5,43.3,29.99,SW,236,6.0,8.0,46,0.00,,,0.00,WeatherCatV1.14B232,2013-05-24 00:38:00,
2013-05-23 17:43:00,64.7,43.4,29.98,SW,214,1.0,8.0,46,0.00,,,0.00,WeatherCatV1.14B232,2013-05-24 00:43:00,
2013-05-23 17:48:00,65.2,43.9,29.98,WSW,255,5.0,5.0,46,0.00,,,0.00,WeatherCatV1.14B232,2013-05-24 00:48:00,
2013-05-23 17:53:00,65.1,42.6,29.98,West,274,3.0,6.0,44,0.00,,,0.00,WeatherCatV1.14B232,2013-05-24 00:53:00,
2013-05-23 17:58:00,65.0,43.7,29.98,SW,235,2.0,5.0,46,0.00,,,0.00,WeatherCatV1.14B232,2013-05-24 00:58:00,
2013-05-23 18:03:00,65.1,43.8,29.98,WSW,256,1.0,4.0,46,0.00,,,0.00,WeatherCatV1.14B232,2013-05-24 01:03:00,
2013-05-23 18:08:00,65.0,43.1,29.98,West,262,1.0,2.0,45,0.00,,,0.00,WeatherCatV1.14B232,2013-05-24 01:08:00,
2013-05-23 18:13:00,65.1,44.9,29.98,West,280,2.0,2.0,48,0.00,,,0.00,WeatherCatV1.14B232,2013-05-24 01:13:00,
2013-05-23 18:18:00,65.0,45.9,29.98,West,262,2.0,5.0,50,0.00,,,0.00,WeatherCatV1.14B232,2013-05-24 01:18:00,
2013-05-23 18:23:00,64.3,46.3,29.98,WSW,239,6.0,6.0,52,0.00,,,0.00,WeatherCatV1.14B232,2013-05-24 01:23:00,
2013-05-23 18:28:00,63.5,45.6,29.98,WSW,239,6.0,6.0,52,0.00,,,0.00,WeatherCatV1.14B232,2013-05-24 01:28:00,
2013-05-23 18:33:00,63.1,45.2,29.98,West,262,4.0,6.0,52,0.00,,,0.00,WeatherCatV1.14B232,2013-05-24 01:33:00,
2013-05-23 18:38:00,63.1,45.2,29.98,SW,235,5.0,6.0,52,0.00,,,0.00,WeatherCatV1.14B232,2013-05-24 01:38:00,
2013-05-23 18:43:00,62.8,45.9,29.98,SW,230,1.0,2.0,54,0.00,,,0.00,WeatherCatV1.14B232,2013-05-24 01:43:00,
2013-05-23 18:48:00,62.9,46.0,29.98,WSW,240,1.0,2.0,54,0.00,,,0.00,WeatherCatV1.14B232,2013-05-24 01:48:00,
2013-05-23 18:53:00,62.5,45.1,29.98,WSW,246,0.0,2.0,53,0.00,,,0.00,WeatherCatV1.14B232,2013-05-24 01:53:00,
2013-05-23 18:58:00,62.3,44.9,29.98,WSW,243,0.0,0.0,53,0.00,,,0.00,WeatherCatV1.14B232,2013-05-24 01:58:00,
2013-05-23 19:03:00,62.2,45.8,29.98,WSW,243,0.0,0.0,55,0.00,,,0.00,WeatherCatV1.14B232,2013-05-24 02:03:00,
2013-05-23 19:08:00,62.4,45.0,29.98,WSW,243,0.0,0.0,53,0.00,,,0.00,WeatherCatV1.14B232,2013-05-24 02:08:00,
2013-05-23 19:13:00,62.6,44.7,29.98,NE,39,0.0,1.0,52,0.00,,,0.00,WeatherCatV1.14B232,2013-05-24 02:13:00,
2013-05-23 19:18:00,62.6,44.2,29.98,NE,40,0.0,1.0,51,0.00,,,0.00,WeatherCatV1.14B232,2013-05-24 02:18:00,
2013-05-23 19:23:00,62.4,44.5,29.98,NE,44,0.0,0.0,52,0.00,,,0.00,WeatherCatV1.14B232,2013-05-24 02:23:00,
2013-05-23 19:28:00,62.0,44.2,29.98,NE,44,0.0,0.0,52,0.00,,,0.00,WeatherCatV1.14B232,2013-05-24 02:28:00,
2013-05-23 19:33:00,61.6,44.3,29.98,NE,44,0.0,0.0,53,0.00,,,0.00,WeatherCatV1.14B232,2013-05-24 02:33:00,
2013-05-23 19:38:00,61.2,43.9,29.98,NE,44,0.0,0.0,53,0.00,,,0.00,WeatherCatV1.14B232,2013-05-24 02:38:00,
2013-05-23 19:43:00,60.8,43.1,29.98,NE,44,0.0,1.0,52,0.00,,,0.00,WeatherCatV1.14B232,2013-05-24 02:43:00,
2013-05-23 19:48:00,60.4,43.2,29.98,NE,44,0.0,0.0,53,0.00,,,0.00,WeatherCatV1.14B232,2013-05-24 02:48:00,
2013-05-23 19:53:00,60.1,42.4,29.98,NE,42,0.0,3.0,52,0.00,,,0.00,WeatherCatV1.14B232,2013-05-24 02:53:00,
2013-05-23 19:58:00,59.9,42.2,29.98,NE,44,0.0,0.0,52,0.00,,,0.00,WeatherCatV1.14B232,2013-05-24 02:58:00,
2013-05-23 20:03:00,59.7,42.0,29.98,NE,44,0.0,0.0,52,0.00,,,0.00,WeatherCatV1.14B232,2013-05-24 03:03:00,
2013-05-23 20:08:00,59.5,41.9,29.98,NE,41,0.0,0.0,52,0.00,,,0.00,WeatherCatV1.14B232,2013-05-24 03:08:00,
2013-05-23 20:13:00,59.3,41.7,29.98,NE,43,0.0,1.0,52,0.00,,,0.00,WeatherCatV1.14B232,2013-05-24 03:13:00,
2013-05-23 20:18:00,59.2,41.6,29.98,NE,44,0.0,0.0,52,0.00,,,0.00,WeatherCatV1.14B232,2013-05-24 03:18:00,
2013-05-23 20:23:00,59.2,41.1,29.98,NE,44,0.0,0.0,51,0.00,,,0.00,WeatherCatV1.14B232,2013-05-24 03:23:00,
2013-05-23 20:28:00,59.1,41.0,29.98,NE,44,0.0,0.0,51,0.00,,,0.00,WeatherCatV1.14B232,2013-05-24 03:28:00,
2013-05-23 20:33:00,59.3,41.2,29.98,NE,44,0.0,0.0,51,0.00,,,0.00,WeatherCatV1.14B232,2013-05-24 03:33:00,
2013-05-23 20:38:00,59.3,41.2,29.98,ENE,70,0.0,0.0,51,0.00,,,0.00,WeatherCatV1.14B232,2013-05-24 03:38:00,
2013-05-23 20:43:00,59.1,41.0,29.98,ENE,71,0.0,0.0,51,0.00,,,0.00,WeatherCatV1.14B232,2013-05-24 03:43:00,
2013-05-23 20:48:00,59.0,40.9,29.98,SW,229,0.0,0.0,51,0.00,,,0.00,WeatherCatV1.14B232,2013-05-24 03:48:00,
2013-05-23 20:53:00,58.8,42.2,29.98,SW,233,0.0,0.0,54,0.00,,,0.00,WeatherCatV1.14B232,2013-05-24 03:53:00,
2013-05-23 20:58:00,58.5,42.9,29.98,SW,233,0.0,0.0,56,0.00,,,0.00,WeatherCatV1.14B232,2013-05-24 03:58:00,
2013-05-23 21:01:00,58.3,43.1,29.98,SW,233,0.0,0.0,57,0.00,,,0.00,WeatherCatV1.14B232,2013-05-24 04:01:00,
2013-05-23 21:06:00,57.8,44.0,29.99,WSW,249,0.0,0.0,60,0.00,,,0.00,WeatherCatV1.14B232,2013-05-24 04:06:00,
2013-05-23 21:11:00,57.3,44.8,29.99,SW,233,0.0,0.0,63,0.00,,,0.00,WeatherCatV1.14B232,2013-05-24 04:11:00,
2013-05-23 21:16:00,56.7,45.9,29.99,WSW,238,0.0,0.0,67,0.00,,,0.00,WeatherCatV1.14B232,2013-05-24 04:16:00,
2013-05-23 21:21:00,56.3,45.5,29.99,SW,231,0.0,0.0,67,0.00,,,0.00,WeatherCatV1.14B232,2013-05-24 04:21:00,
2013-05-23 21:26:00,56.0,45.2,29.99,SW,231,0.0,0.0,67,0.00,,,0.00,WeatherCatV1.14B232,2013-05-24 04:26:00,
2013-05-23 21:27:00,56.1,45.3,29.99,SW,231,0.0,0.0,67,0.00,,,0.00,WeatherCatV1.14B232,2013-05-24 04:27:00,
2013-05-23 21:32:00,55.7,44.1,30.00,SW,232,0.0,0.0,65,0.00,,,0.00,WeatherCatV1.14B232,2013-05-24 04:32:00,
2013-05-23 21:37:00,55.7,44.9,30.00,SW,232,0.0,0.0,67,0.00,,,0.00,WeatherCatV1.14B232,2013-05-24 04:37:00,
2013-05-23 21:41:00,56.0,44.0,30.00,SW,232,0.0,0.0,64,0.00,,,0.00,WeatherCatV1.14B232,2013-05-24 04:41:00,
2013-05-23 21:46:00,56.2,44.6,30.00,NE,42,2.0,4.0,65,0.00,,,0.00,WeatherCatV1.14B232,2013-05-24 04:46:00,
2013-05-23 21:51:00,56.2,45.0,30.00,NE,48,2.0,2.0,66,0.00,,,0.00,WeatherCatV1.14B232,2013-05-24 04:51:00,
2013-05-23 21:56:00,56.0,45.2,30.00,NE,48,2.0,2.0,67,0.00,,,0.00,WeatherCatV1.14B232,2013-05-24 04:56:00,
2013-05-23 22:01:00,55.7,45.3,30.00,NE,49,2.0,2.0,68,0.00,,,0.00,WeatherCatV1.14B232,2013-05-24 05:01:00,
2013-05-23 22:06:00,55.5,45.1,30.00,NE,48,2.0,2.0,68,0.00,,,0.00,WeatherCatV1.14B232,2013-05-24 05:06:00,
2013-05-23 22:11:00,55.4,45.0,30.01,NE,48,1.0,2.0,68,0.00,,,0.00,WeatherCatV1.14B232,2013-05-24 05:11:00,
2013-05-23 22:16:00,55.4,45.0,30.01,NE,48,0.0,2.0,68,0.00,,,0.00,WeatherCatV1.14B232,2013-05-24 05:16:00,
2013-05-23 22:21:00,55.4,44.2,30.00,NE,48,0.0,0.0,66,0.00,,,0.00,WeatherCatV1.14B232,2013-05-24 05:21:00,
2013-05-23 22:26:00,55.5,43.9,30.00,NE,48,0.0,0.0,65,0.00,,,0.00,WeatherCatV1.14B232,2013-05-24 05:26:00,
2013-05-23 22:31:00,55.5,43.9,30.01,NE,49,0.0,0.0,65,0.00,,,0.00,WeatherCatV1.14B232,2013-05-24 05:31:00,
2013-05-23 22:36:00,55.5,43.9,30.00,NE,48,0.0,0.0,65,0.00,,,0.00,WeatherCatV1.14B232,2013-05-24 05:36:00,
2013-05-23 22:41:00,55.5,43.9,30.00,NE,48,0.0,0.0,65,0.00,,,0.00,WeatherCatV1.14B232,2013-05-24 05:41:00,
2013-05-23 22:46:00,55.3,43.7,30.00,NE,48,0.0,0.0,65,0.00,,,0.00,WeatherCatV1.14B232,2013-05-24 05:46:00,
2013-05-23 22:51:00,55.1,43.5,30.00,NE,50,0.0,0.0,65,0.00,,,0.00,WeatherCatV1.14B232,2013-05-24 05:51:00,
2013-05-23 22:56:00,54.9,43.4,30.00,NE,49,0.0,0.0,65,0.00,,,0.00,WeatherCatV1.14B232,2013-05-24 05:56:00,
2013-05-23 23:01:00,54.8,43.7,30.00,NE,49,0.0,0.0,66,0.00,,,0.00,WeatherCatV1.14B232,2013-05-24 06:01:00,
2013-05-23 23:06:00,54.7,43.6,30.00,NE,49,0.0,0.0,66,0.00,,,0.00,WeatherCatV1.14B232,2013-05-24 06:06:00,
2013-05-23 23:11:00,54.5,43.8,30.00,NE,49,0.0,0.0,67,0.00,,,0.00,WeatherCatV1.14B232,2013-05-24 06:11:00,
2013-05-23 23:16:00,54.5,43.0,30.00,NE,50,0.0,0.0,65,0.00,,,0.00,WeatherCatV1.14B232,2013-05-24 06:16:00,
2013-05-23 23:21:00,54.6,42.7,30.00,NE,49,0.0,0.0,64,0.00,,,0.00,WeatherCatV1.14B232,2013-05-24 06:21:00,
2013-05-23 23:26:00,54.6,42.7,29.99,NE,50,0.0,0.0,64,0.00,,,0.00,WeatherCatV1.14B232,2013-05-24 06:26:00,
2013-05-23 23:31:00,54.6,43.1,29.99,NE,50,0.0,0.0,65,0.00,,,0.00,WeatherCatV1.14B232,2013-05-24 06:31:00,
2013-05-23 23:36:00,54.5,43.0,29.99,NE,50,0.0,0.0,65,0.00,,,0.00,WeatherCatV1.14B232,2013-05-24 06:36:00,
2013-05-23 23:41:00,54.5,43.4,29.99,NE,50,0.0,0.0,66,0.00,,,0.00,WeatherCatV1.14B232,2013-05-24 06:41:00,
2013-05-23 23:46:00,54.3,43.2,29.99,NE,50,0.0,0.0,66,0.00,,,0.00,WeatherCatV1.14B232,2013-05-24 06:46:00,
2013-05-23 23:51:00,54.1,43.4,29.99,NE,49,0.0,0.0,67,0.00,,,0.00,WeatherCatV1.14B232,2013-05-24 06:51:00,
2013-05-23 23:55:00,54.0,43.3,29.99,NE,50,0.0,0.0,67,0.00,,,0.00,WeatherCatV1.14B232,2013-05-24 06:55:00,